Volver al catálogo

CZ-6A DEB

ActivoSSO
NORAD 54400·DEBRIS·🇨🇳 China

Lanzado Nov 11, 2022 desde Taiyuan Satellite Launch Center

Loading…

Próximos Pases (próximas 24 horas)

TLE

ActualizadoSource: Space-Track

Época: Sep 14, 2026, 22:01 UTC

1 54400U 22151DY  26257.91781501  .00001623  00000-0  31350-3 0  9995
2 54400  98.5705 329.2059 0118657 319.8045  39.4423 14.60557060203595

Sigue CZ-6A DEB en tiempo real con AllMySat

Download on the App Store